Theta_e
329 329 329 329 330 329 329 330 330 329 330 330 330 330 330 331 331 331 331 331 332 332 332 332 331 331 331 331 331 331 330 330 330 329 328 328 328 328 328 328 327 327 327 327 326 326 325 325 324 324 324 323 322 321 320 319 318 318 317 318 318 318 319 319 320 321 321 322 323 323 324 324 325 325 326 327 328 329 330 331 331 331 331 331 330 329
329 329 329 329 329 329 329 329 329 329 329 330 330 330 330 330 331 331 331 331 331 331 331 331 331 331 331 331 331 331 331 330 330 329 329 328 328 328 328 328 328 327 327 327 327 327 326 326 326 326 326 325 324 323 322 321 320 320 319 319 319 319 319 319 320 320 320 321 321 321 321 322 322 322 322 323 324 325 326 327 327 328 328 328 328 328
328 328 329 328 328 329 329 329 329 329 329 329 330 330 330 330 331 331 331 331 331 331 331 331 331 331 331 331 331 331 331 331 330 330 329 329 328 328 328 328 328 328 328 327 327 327 327 327 327 327 326 326 326 325 324 323 322 322 321 321 320 320 320 320 320 320 320 320 320 320 320 320 320 320 320 320 321 322 322 323 323 324 324 325 326 327
327 327 328 328 328 329 329 329 329 329 329 329 329 330 330 330 330 330 330 330 330 331 330 330 330 331 331 331 331 331 331 331 330 330 330 329 329 328 328 328 328 328 328 328 328 328 328 327 327 327 327 326 326 326 325 324 324 323 323 323 322 322 322 322 322 322 321 321 321 321 321 321 320 320 320 320 320 321 322 321 321 321 321 323 325 327
326 326 327 328 328 329 329 329 329 329 329 329 329 329 329 330 330 330 330 330 330 330 330 330 330 330 330 330 331 331 330 330 330 330 330 329 329 328 328 328 328 328 328 328 328 328 328 328 328 327 327 327 327 326 326 325 325 325 324 324 324 324 323 323 323 323 323 323 323 323 322 322 322 321 321 321 321 321 322 322 321 320 320 322 324 326
325 326 326 327 327 328 328 328 329 329 329 329 329 329 329 329 329 329 330 330 329 330 329 329 329 329 330 330 330 330 330 329 329 329 329 329 328 328 328 328 328 328 329 329 328 328 328 328 328 328 327 327 327 327 327 326 326 326 326 325 325 325 325 324 324 324 324 324 324 324 324 324 323 323 323 322 322 322 322 322 321 321 320 321 323 324
325 325 326 326 326 327 327 328 328 328 328 329 329 329 329 329 329 329 329 329 329 329 329 329 329 329 329 329 329 329 329 329 329 328 328 328 327 327 327 327 328 328 329 329 329 329 328 328 328 328 328 328 327 327 327 327 327 327 327 326 326 326 325 325 325 325 325 325 325 325 325 325 325 324 324 323 323 323 322 322 322 321 321 321 322 323
324 324 325 325 326 326 326 326 327 327 327 328 328 329 328 328 328 328 328 328 329 329 329 329 329 329 329 329 329 329 329 328 328 328 328 327 327 326 327 327 327 328 328 329 329 329 329 328 328 328 328 328 328 328 328 328 328 327 327 327 327 327 326 326 326 326 326 326 325 325 325 325 325 325 325 324 324 324 323 323 323 322 322 322 323 323
323 324 324 324 325 325 326 326 326 326 326 326 327 328 328 328 328 328 328 328 328 328 328 328 329 329 328 328 328 328 328 328 328 328 327 327 326 326 326 327 327 327 328 328 328 329 329 328 328 328 328 328 328 328 328 328 328 328 328 328 327 327 327 327 326 326 326 326 326 326 326 326 325 325 325 325 324 324 324 323 323 323 323 323 324 324
323 323 323 324 324 324 325 325 325 324 325 325 325 326 327 328 328 328 327 327 327 327 327 328 328 328 328 328 328 328 328 327 327 327 327 326 326 326 326 326 327 327 327 327 328 328 328 328 328 328 328 328 328 328 328 328 328 328 328 328 328 327 327 327 327 326 326 326 326 326 326 326 325 325 325 324 324 324 324 324 324 324 324 324 324 325
322 322 322 322 323 323 323 324 323 323 323 323 324 325 325 326 327 327 327 326 326 326 326 326 327 327 327 327 327 327 327 327 327 326 326 326 325 325 326 326 326 326 326 327 327 327 327 328 328 328 328 328 328 328 328 328 328 328 328 328 327 327 327 327 327 326 326 326 326 326 325 325 325 325 324 324 324 324 324 324 324 324 324 324 325 325
320 319 319 320 320 321 321 322 322 322 321 321 321 322 323 324 324 325 326 325 325 324 325 325 325 325 325 325 325 325 325 325 326 326 326 325 325 325 325 325 325 326 326 326 326 326 326 326 326 327 327 327 327 327 327 327 327 327 327 327 327 326 326 326 326 326 326 325 325 325 325 325 324 324 324 324 324 325 325 325 325 325 325 325 325 325
318 318 318 318 318 319 319 320 319 319 318 317 318 319 320 321 322 323 323 324 323 323 323 323 322 322 322 323 322 322 322 323 324 324 324 324 324 324 324 324 324 324 324 324 324 324 324 324 325 325 325 325 325 326 326 326 326 326 325 325 325 325 325 325 325 325 325 325 324 324 324 324 324 324 325 325 325 325 325 325 325 325 325 325 324 324
318 318 317 317 317 317 317 318 318 317 315 315 315 316 318 319 320 320 320 320 320 320 320 321 320 319 319 319 319 319 319 320 321 321 321 321 321 321 321 321 321 321 321 321 321 321 321 322 322 322 322 322 323 323 323 323 324 324 324 324 324 324 324 324 324 324 324 324 324 324 324 325 325 325 325 325 325 325 325 324 324 324 324 323 323 323
319 318 318 317 317 317 316 316 316 315 314 314 314 314 315 316 316 316 315 316 316 316 317 317 317 316 316 316 317 317 317 318 318 319 319 319 319 318 318 318 318 318 318 318 318 318 318 319 319 319 319 320 320 320 321 321 321 321 322 322 322 322 322 323 323 323 324 324 324 324 325 325 324 324 324 324 324 324 323 323 322 321 322 322 322 322
319 318 318 317 317 316 316 316 315 314 313 313 313 313 313 314 313 313 313 314 314 315 315 315 315 314 314 314 315 315 316 317 317 318 318 317 316 316 316 316 316 315 315 316 316 316 316 316 317 317 317 317 317 318 318 318 319 319 319 320 320 320 320 321 321 322 322 323 323 323 323 323 323 323 323 322 322 322 321 321 320 320 320 320 321 321
319 319 318 317 317 316 316 316 315 314 313 313 313 313 313 313 313 313 313 314 314 314 314 315 315 314 314 314 314 315 315 316 316 316 316 315 314 314 314 314 315 314 314 314 314 314 314 315 315 315 315 315 315 316 316 317 317 318 318 318 318 318 318 318 319 319 320 320 321 321 321 321 320 320 320 320 320 319 319 318 318 318 318 318 319 319
319 319 318 318 317 316 316 316 316 315 314 313 312 312 312 313 313 313 314 314 314 314 314 314 315 315 315 314 313 313 314 314 315 315 314 313 313 312 312 313 313 313 313 313 313 313 313 314 314 314 314 314 314 315 315 316 316 317 317 317 317 317 317 317 317 317 317 317 317 317 317 317 317 317 317 317 317 316 316 316 316 316 316 316 316 316
318 318 318 317 317 316 315 315 315 315 315 314 313 313 313 313 313 313 313 313 313 313 313 313 314 315 315 314 313 312 312 312 313 314 313 312 311 311 311 312 313 313 313 313 313 313 313 313 313 313 314 314 314 314 315 315 315 315 315 315 315 315 315 315 315 315 315 315 314 314 314 314 315 315 315 314 314 314 314 314 314 313 313 313 313 313
318 318 318 317 316 316 315 314 314 314 315 315 314 314 313 313 313 313 312 312 312 312 312 313 313 314 314 313 312 312 311 311 311 313 313 312 311 311 311 312 313 314 313 313 313 313 313 314 314 314 314 314 314 314 314 314 314 314 314 314 313 313 313 313 312 312 312 312 312 312 312 312 312 312 312 312 312 312 312 312 312 312 312 312 312 312
319 318 318 318 317 317 315 315 314 314 313 314 314 315 314 313 313 312 312 311 311 312 312 313 313 313 313 313 312 312 311 310 311 312 313 312 312 312 312 312 313 313 313 313 313 313 313 313 313 313 313 312 312 312 312 312 312 312 311 311 311 311 311 310 310 310 310 310 310 310 310 310 310 310 310 311 311 311 311 311 311 311 311 311 312 312
319 319 318 318 318 318 317 317 316 315 314 314 314 315 316 316 315 314 313 312 312 312 312 312 312 312 313 313 312 312 311 310 311 312 313 313 312 312 312 312 311 311 311 311 311 311 311 311 311 311 311 310 310 310 310 310 310 310 310 309 309 309 309 309 309 309 309 309 309 309 309 310 310 310 310 310 310 310 310 311 311 311 311 311 312 312
317 318 318 318 318 318 317 317 317 316 316 315 315 315 315 315 315 315 315 315 314 314 313 312 311 311 311 311 311 311 310 310 310 312 313 312 312 311 311 310 310 309 309 309 309 309 309 309 309 309 309 308 308 308 308 308 309 308 308 308 308 308 308 308 308 309 309 309 309 309 309 309 309 310 310 310 310 310 311 311 311 311 311 311 311 311
316 317 317 317 317 317 317 316 316 316 316 315 315 314 314 314 314 315 315 315 315 314 314 313 312 311 310 310 310 310 310 309 309 311 312 312 311 310 309 308 308 307 307 306 306 306 306 307 307 307 307 307 307 307 307 307 308 308 308 308 308 308 308 308 308 308 308 308 308 309 309 309 309 310 310 310 310 310 310 311 311 311 310 310 310 310
315 316 316 316 316 316 316 315 315 314 314 314 313 313 313 313 313 314 314 313 313 313 313 312 312 311 310 310 309 309 309 308 308 309 310 311 309 308 307 306 306 306 305 305 305 305 305 306 306 306 306 306 306 306 306 307 307 307 307 307 307 307 308 308 308 308 308 308 308 308 309 309 309 309 309 310 310 310 310 310 309 309 309 309 308 308
315 315 315 316 316 316 315 315 314 313 312 312 312 311 311 311 312 312 311 311 311 311 311 311 311 310 309 309 308 308 307 307 307 307 308 309 308 306 305 304 305 305 305 304 304 304 305 305 305 305 305 306 306 306 306 306 306 306 307 307 307 307 307 307 307 308 308 308 308 308 308 309 309 309 309 309 309 309 308 308 308 308 307 307 307 307
315 315 315 315 315 315 315 314 313 312 311 310 310 310 310 310 311 310 310 309 309 309 310 310 310 309 308 307 306 306 305 305 305 305 306 307 307 305 304 303 304 304 304 304 304 304 304 304 304 305 305 305 305 305 305 305 305 306 306 306 306 306 307 307 307 307 307 308 308 308 308 308 308 308 308 308 307 307 307 307 307 307 306 306 306 306
314 314 314 314 314 314 314 313 313 312 310 309 308 308 308 309 310 310 310 309 308 308 308 309 309 308 306 305 305 304 304 304 304 304 304 305 306 305 304 303 303 304 304 304 303 303 303 303 303 303 304 304 304 304 304 304 304 305 305 305 306 306 306 306 306 307 307 307 307 307 307 307 307 307 307 307 306 306 306 306 306 306 306 305 305 305
313 313 313 313 312 313 312 312 312 311 310 310 308 308 307 308 308 309 309 309 308 308 308 308 308 308 306 305 304 304 304 303 303 303 304 305 305 305 304 304 303 303 304 303 303 302 302 302 302 302 303 303 303 303 303 304 304 304 304 304 305 305 305 306 306 306 306 306 306 306 306 306 306 306 306 306 306 306 305 305 305 305 305 305 305 304
311 312 312 312 312 312 312 312 311 311 311 310 309 308 307 307 307 308 308 308 308 308 308 308 308 308 307 306 304 303 303 303 303 303 304 304 305 305 304 304 304 303 304 304 303 302 301 301 301 302 302 302 303 303 303 303 303 304 304 304 304 305 305 305 305 305 305 305 305 305 305 305 305 305 305 305 305 305 305 304 304 304 304 304 304 303
310 310 310 310 310 310 310 310 310 310 310 310 310 309 309 308 307 307 308 307 308 308 308 308 308 308 307 306 305 304 303 303 303 304 304 305 305 305 305 304 304 303 303 304 303 302 301 301 301 301 302 302 302 302 303 303 303 303 304 304 304 304 304 304 304 304 305 305 305 305 305 305 305 305 304 304 304 304 304 304 303 303 303 303 303 302
310 310 310 309 309 309 309 309 309 309 309 309 309 309 309 308 308 308 307 307 307 307 307 307 307 307 307 307 307 306 305 304 304 304 304 304 305 304 304 304 304 304 303 303 304 304 303 302 301 301 302 302 302 302 302 302 302 303 303 303 303 303 303 304 304 304 304 304 304 304 304 304 304 304 303 303 303 303 303 302 302 302 302 301 301 301
310 310 309 309 309 309 308 308 308 308 309 308 308 308 308 308 308 308 307 307 307 306 307 307 308 307 307 307 307 307 306 305 305 305 304 304 304 304 304 304 304 304 304 303 304 304 305 304 303 302 302 302 302 302 302 302 302 302 302 303 303 303 303 303 303 303 303 303 303 303 303 303 303 302 302 302 302 302 301 301 301 301 301 300 300 300
310 309 309 309 309 308 308 308 308 308 308 308 308 308 307 307 307 307 307 307 307 307 307 307 308 308 308 307 307 306 306 305 305 305 305 304 304 304 304 305 305 304 304 304 304 304 304 304 303 303 302 302 302 302 302 302 302 302 302 302 302 302 302 302 302 302 302 302 302 302 302 302 302 301 301 301 301 301 301 301 300 300 300 300 299 299
309 309 309 309 309 308 308 308 308 308 308 307 307 307 307 307 307 307 307 307 307 307 306 307 307 307 307 307 307 306 305 305 305 305 305 304 304 304 304 305 305 305 304 304 304 304 303 303 303 303 303 302 302 302 301 301 301 302 302 302 302 302 302 302 302 302 302 302 302 301 301 301 301 300 300 300 300 300 300 299 299 299 299 299 298 298
309 309 309 308 308 308 308 308 308 308 308 307 307 307 307 307 307 307 307 307 306 306 306 306 306 306 306 306 306 306 306 305 305 305 305 305 304 303 304 305 305 304 304 304 304 304 303 303 302 302 302 302 302 302 301 301 301 301 302 302 302 302 301 301 301 301 301 301 301 301 301 300 300 300 299 299 299 299 299 298 298 298 298 297 297 297
308 308 308 308 308 308 308 308 307 307 307 307 306 306 306 306 306 306 306 306 306 306 306 306 306 306 306 305 305 305 305 305 305 305 305 305 304 303 303 304 304 304 304 304 303 303 303 303 303 302 302 302 302 302 302 301 301 301 301 301 301 301 301 301 301 300 300 300 300 300 300 299 299 299 299 298 298 298 298 297 297 297 297 296 296 296
308 308 308 308 307 307 307 307 307 307 307 306 306 306 305 305 306 306 306 306 305 306 306 306 306 306 305 305 305 305 305 305 305 305 305 305 304 303 303 303 304 304 303 303 302 302 303 303 303 303 302 302 302 302 301 301 301 301 301 301 300 300 300 300 300 300 299 299 299 299 299 298 298 298 298 298 298 297 297 297 297 296 296 296 295 295
307 308 308 307 307 307 307 307 306 306 306 305 305 305 305 305 305 305 305 305 305 305 305 305 306 306 305 305 305 304 304 304 304 305 305 305 304 303 303 303 303 303 302 302 302 302 302 302 303 303 302 302 301 301 301 300 300 300 300 300 300 299 299 299 299 299 298 298 298 298 298 298 297 297 297 297 297 296 296 296 296 295 295 295 294 294
307 307 307 307 306 306 306 306 306 306 305 305 305 305 305 305 305 305 305 305 304 304 305 305 305 305 305 305 305 304 304 304 304 304 304 304 304 303 303 302 302 302 302 302 302 302 302 302 302 302 301 301 301 301 300 300 299 299 299 299 299 298 298 298 298 297 297 297 297 297 297 297 297 297 296 296 296 296 295 295 295 295 294 294 293 293
306 306 306 306 306 306 306 305 305 305 305 305 305 304 304 304 305 305 305 304 304 304 304 304 304 305 304 304 304 304 304 304 303 303 303 303 303 303 303 302 302 301 302 302 302 302 302 302 302 301 301 300 300 300 300 299 299 298 298 298 298 297 297 297 296 296 296 296 296 296 296 296 296 295 295 295 295 294 294 294 294 294 294 293 293 293
305 305 305 305 305 305 305 305 304 304 304 304 304 304 304 304 304 305 305 304 304 304 304 304 304 304 304 304 303 303 303 303 303 303 302 302 302 302 302 302 301 301 301 301 301 301 301 301 301 300 300 300 299 299 299 298 298 297 297 297 297 296 296 295 295 295 295 295 295 295 295 295 294 294 294 293 293 293 293 293 293 293 293 293 292 292
304 304 304 304 304 304 304 304 304 304 304 304 304 304 304 304 304 304 304 304 304 304 303 303 303 303 304 303 303 303 302 302 302 302 301 301 301 301 301 301 301 301 300 300 300 300 300 299 299 299 298 298 298 298 298 297 297 296 296 295 295 295 294 294 294 294 293 293 294 294 294 293 293 292 292 292 292 292 292 292 292 292 292 292 292 292
303 303 303 303 303 303 303 303 303 303 303 303 303 303 303 303 303 303 303 303 303 303 303 303 302 303 303 303 302 302 302 301 301 301 300 300 300 300 300 300 299 299 299 298 298 298 297 297 297 297 296 296 296 295 296 296 295 295 294 294 294 293 293 293 293 293 292 292 292 292 292 292 292 292 292 292 292 292 292 292 292 292 292 292 292 292
303 303 303 303 302 302 302 302 302 302 302 302 302 302 302 302 302 302 302 302 302 302 302 302 302 302 302 302 301 301 300 300 300 299 299 298 298 297 297 297 297 296 296 296 295 295 295 295 295 295 294 294 294 294 294 293 293 293 293 292 292 292 292 292 292 292 292 292 291 291 291 291 291 291 291 291 291 291 291 291 291 291 291 292 292 292
302 302 302 302 302 302 301 301 301 301 301 301 301 301 301 300 300 300 300 301 301 301 300 300 300 300 300 300 300 299 299 298 298 297 297 296 296 295 295 295 294 294 293 293 293 293 293 293 293 293 293 293 293 292 292 292 292 292 292 291 291 291 291 292 292 292 291 291 291 291 291 291 291 291 291 291 291 291 291 291 291 291 291 292 292 292
302 301 301 301 301 301 300 300 300 300 300 300 299 299 299 299 299 299 298 298 299 299 299 299 298 298 298 297 297 297 297 296 296 295 295 294 294 293 293 293 293 292 292 292 292 292 292 292 292 292 292 292 292 292 291 291 291 291 291 291 291 291 291 291 291 291 291 291 291 291 291 291 291 291 291 291 291 291 291 291 291 291 291 291 292 292
301 300 300 300 300 299 299 299 298 298 298 298 298 297 297 297 296 296 296 296 296 297 297 297 296 296 295 294 294 294 294 294 294 293 293 293 292 292 292 292 292 292 291 291 291 291 291 291 291 291 291 291 291 291 291 291 290 290 290 290 291 291 291 291 291 291 291 291 291 291 291 291 291 291 291 291 291 291 291 291 291 291 291 291 291 291
299 299 299 299 298 298 298 297 297 296 296 296 296 296 295 295 294 294 295 294 294 294 295 295 294 294 293 293 292 292 292 292 292 292 292 291 291 291 291 291 291 291 291 291 291 291 291 291 291 290 290 290 290 290 290 290 290 290 290 290 290 290 290 290 290 290 290 290 290 290 290 290 291 291 291 291 291 291 291 291 290 291 291 291 290 290
298 298 297 297 297 296 296 295 295 294 294 294 294 294 293 293 293 293 293 293 293 293 293 292 292 292 292 292 291 291 291 291 291 291 290 290 290 290 290 290 290 290 290 290 290 290 290 290 290 290 290 290 290 290 290 290 290 290 290 290 290 290 290 290 290 290 290 290 290 290 290 290 290 290 290 290 290 290 290 290 290 290 290 290 289 289
297 296 296 295 295 294 294 294 293 293 292 292 292 292 292 292 292 292 292 292 292 291 291 291 290 290 290 290 290 290 290 290 290 290 290 289 289 290 290 290 290 290 290 290 290 290 290 289 289 289 289 289 289 289 289 289 289 290 290 290 290 290 290 290 290 290 290 290 290 290 290 290 290 290 290 290 290 290 290 290 289 289 289 289 289 289
Wind_Speed
33 33 32 30 30 31 31 31 31 33 35 37 39 40 41 41 42 42 42 43 43 44 44 44 44 44 43 42 42 41 41 38 35 33 34 35 36 37 38 38 38 38 37 37 37 36 36 35 35 35 34 34 33 33 33 33 32 32 32 31 31 31 31 31 31 32 32 32 33 33 34 34 34 34 34 33 32 32 32 32 32 32 32 32 32 30
29 30 30 31 32 32 32 32 32 34 37 38 40 41 42 43 43 43 43 43 44 44 45 45 45 44 43 43 42 41 40 37 35 33 33 35 37 38 39 39 39 39 39 38 38 38 37 37 36 36 36 35 35 34 34 33 33 33 32 32 31 31 31 31 31 31 31 31 31 31 32 32 32 32 32 31 32 32 32 32 31 31 31 31 31 30
26 29 31 33 34 34 34 34 34 35 37 39 40 42 43 44 44 45 45 45 44 45 45 45 45 44 44 43 42 41 39 37 35 33 33 35 36 38 39 40 40 40 40 39 39 39 39 38 38 38 37 37 36 36 35 35 34 34 33 33 32 32 31 31 31 30 30 30 30 30 30 30 30 30 30 30 30 31 32 33 33 33 33 32 31 31
25 27 30 33 34 35 35 35 36 37 38 39 40 41 43 44 45 46 46 45 45 45 45 45 45 45 44 43 42 40 39 37 35 34 33 34 35 37 38 39 40 40 40 40 40 40 40 40 40 39 39 39 38 37 37 36 36 35 35 34 33 33 32 32 32 31 31 30 30 30 29 29 30 30 30 30 29 30 30 32 33 34 34 33 32 32
23 25 27 29 31 33 35 36 37 38 39 39 40 41 42 44 45 46 46 46 46 46 45 45 44 44 44 43 42 40 38 37 35 34 33 33 33 35 37 38 39 39 40 40 40 41 41 41 41 41 41 40 40 39 39 38 37 37 36 36 35 35 34 34 33 33 32 31 31 30 30 30 30 30 31 30 30 30 30 32 33 34 34 34 34 34
20 23 25 27 29 31 33 36 38 39 40 40 40 40 41 43 44 46 46 47 47 46 46 45 44 44 43 42 41 39 38 37 36 35 34 33 33 33 35 36 38 39 39 40 40 41 41 42 42 42 42 42 42 41 41 40 39 39 38 38 37 37 36 36 35 34 34 33 33 32 32 31 31 31 32 31 31 31 31 32 33 33 34 34 35 36
18 18 21 25 28 30 32 34 37 40 41 41 41 41 41 42 43 45 46 47 47 46 46 45 44 43 42 41 40 39 38 37 37 36 35 34 33 33 34 36 37 38 39 40 40 41 42 42 42 43 43 43 43 43 42 42 41 41 40 40 39 39 38 38 37 36 36 35 34 34 34 33 33 33 33 33 33 33 33 33 33 33 34 35 36 37
19 17 17 21 25 29 31 33 36 38 40 42 42 42 42 42 43 44 45 46 46 46 45 45 44 43 42 41 40 39 39 39 38 38 36 35 34 33 34 36 37 38 39 40 40 41 42 42 43 43 44 44 44 44 44 44 43 43 42 42 41 41 40 40 39 38 38 37 36 36 35 35 35 35 34 34 34 34 34 34 34 34 35 35 36 36
21 19 17 18 22 27 31 33 35 37 38 40 41 43 44 43 43 44 44 45 45 45 44 43 43 42 42 41 40 40 40 39 39 38 37 35 34 34 35 36 37 38 39 39 40 41 41 42 43 44 44 45 45 45 45 45 45 45 44 44 43 43 43 42 41 40 39 38 37 37 36 36 36 36 36 36 36 36 36 36 36 36 36 36 37 37
20 18 17 17 19 25 31 34 35 36 37 38 39 41 43 44 44 44 44 43 43 43 43 42 41 41 41 41 41 40 40 40 39 38 36 35 34 34 35 36 37 38 38 39 39 40 40 41 42 43 44 44 45 45 46 46 46 46 46 45 45 45 44 43 43 42 40 39 38 38 37 37 37 37 37 37 37 37 37 37 37 37 37 38 38 39
14 12 13 15 18 22 29 34 35 35 36 37 38 39 41 42 43 44 44 43 42 41 41 41 41 40 41 40 40 40 40 39 39 38 36 35 34 35 36 37 37 37 37 38 38 38 39 39 40 41 42 43 44 44 45 45 45 45 44 44 44 43 43 42 42 41 40 39 38 37 37 37 38 38 38 38 38 38 38 38 38 39 39 39 40 40
5 3 6 11 16 20 26 31 34 35 35 35 35 36 38 40 41 42 43 43 42 41 40 41 41 40 40 40 39 39 39 39 39 38 36 35 35 35 36 36 37 37 37 36 36 36 36 36 38 39 39 40 40 41 42 42 42 41 40 40 40 39 39 39 39 38 38 37 36 36 36 37 37 37 37 37 38 38 38 38 38 39 39 39 38 38
5 5 3 4 9 15 20 26 30 31 32 32 32 33 35 38 40 41 41 42 42 41 41 40 39 39 39 38 37 36 36 36 36 36 35 34 34 33 33 33 33 33 33 33 33 32 32 32 33 33 34 34 35 37 37 37 36 36 35 35 35 35 35 35 35 35 35 34 34 34 35 35 35 35 35 36 36 36 36 36 36 35 34 33 32 31
7 5 5 3 3 5 10 18 24 28 29 29 30 31 34 36 37 38 38 38 38 39 39 38 36 34 33 33 32 31 30 30 31 31 30 29 28 27 26 26 26 26 26 26 26 26 26 26 26 27 27 28 29 30 30 30 30 30 30 30 30 31 31 31 32 32 32 32 32 33 33 33 33 33 33 33 33 32 31 30 29 28 27 26 25 25
8 5 5 5 5 4 0 8 17 24 28 28 28 28 29 30 31 31 30 30 31 32 32 32 31 28 26 25 25 24 23 23 23 22 22 21 21 20 19 18 18 18 18 18 19 19 19 19 19 19 20 20 21 22 22 23 24 24 24 25 25 26 26 27 28 29 29 30 31 31 31 31 31 31 31 30 28 27 25 23 21 21 22 22 23 25
9 6 4 5 7 8 6 2 8 18 23 25 24 24 23 23 24 24 23 24 25 25 26 25 24 22 20 19 19 18 17 17 17 16 16 16 16 15 14 13 13 13 13 13 14 13 13 13 14 14 13 14 15 15 16 16 17 18 19 19 20 20 21 22 23 24 25 26 27 27 28 27 27 26 25 24 22 21 19 17 17 18 20 21 23 26
9 7 5 4 5 7 8 6 1 7 15 19 20 20 20 20 20 20 20 21 21 22 23 23 23 21 19 18 17 16 15 14 14 14 15 15 15 13 12 11 11 11 11 11 11 11 11 11 11 11 11 11 11 11 11 11 12 13 13 14 14 14 15 15 16 17 18 19 20 20 20 20 20 19 18 17 16 15 14 14 15 16 18 21 23 26
8 7 6 5 5 6 7 7 5 1 5 11 14 15 16 17 17 17 17 18 19 20 22 22 23 23 22 20 18 16 15 14 14 15 15 16 16 15 13 12 11 11 10 10 10 10 10 10 10 10 9 9 9 8 8 8 9 9 9 9 9 9 9 9 10 10 10 11 11 12 12 12 12 12 11 11 11 11 12 13 15 17 19 21 23 24
7 7 6 6 6 6 6 7 6 5 2 4 9 11 12 13 13 13 13 14 16 18 20 20 21 22 22 22 20 18 17 16 15 16 17 17 16 15 13 12 11 11 10 9 9 9 9 9 9 9 9 8 8 8 7 7 7 7 7 7 6 6 6 6 5 5 5 6 6 6 7 7 7 8 8 9 10 11 12 14 16 18 19 20 20 19
8 8 7 7 6 6 7 7 6 5 4 2 3 6 10 11 12 12 12 12 14 16 16 17 19 20 21 21 21 19 18 17 16 16 17 17 16 15 13 13 12 11 11 11 10 9 9 9 9 9 9 9 9 8 8 8 7 7 6 6 5 5 4 4 4 4 4 4 4 5 5 6 6 7 8 9 11 12 14 16 17 18 18 17 15 14
10 10 10 8 7 7 8 8 8 7 6 4 2 3 6 8 10 11 12 12 14 15 15 16 17 18 19 20 20 20 19 18 17 17 17 16 16 15 14 13 13 13 13 13 13 12 12 11 10 10 10 10 10 9 9 8 7 7 6 5 5 5 4 4 4 4 4 4 5 5 6 6 7 8 9 10 12 13 15 16 16 16 15 14 12 11
12 12 12 11 10 9 10 10 10 10 9 8 7 6 7 8 9 10 11 12 13 15 16 17 17 18 18 19 19 19 19 18 17 16 16 16 15 14 14 14 14 13 14 14 14 13 13 12 12 11 11 10 10 9 9 8 7 7 6 6 6 5 5 5 5 5 5 6 6 6 7 7 8 9 10 11 12 13 14 14 14 14 13 12 11 11
11 12 12 12 12 12 12 12 13 13 13 13 12 11 11 11 11 12 13 13 13 13 13 13 14 16 17 18 18 18 18 17 16 15 14 15 15 14 13 14 14 14 14 14 14 13 13 12 12 11 11 10 9 8 8 7 7 7 7 6 6 6 6 6 6 6 6 6 6 7 7 8 8 9 9 10 10 11 12 12 12 12 12 11 10 10
8 9 10 11 11 12 12 13 14 16 17 17 16 16 15 15 14 14 13 13 13 12 12 12 13 15 16 16 17 17 16 15 14 14 14 15 16 15 14 14 14 14 14 14 13 12 12 11 10 10 10 9 8 7 7 6 6 6 6 6 5 5 5 5 5 5 6 6 6 6 7 7 7 8 8 8 8 9 9 9 9 9 8 8 7 7
6 7 8 9 9 9 10 11 12 14 16 17 18 18 18 17 17 16 15 14 14 14 14 15 16 17 17 17 17 16 15 14 13 13 13 15 17 17 16 16 15 14 14 14 12 11 10 9 9 9 8 8 7 6 6 5 5 5 5 4 4 4 4 4 4 4 4 5 5 5 5 5 5 5 5 5 5 5 5 5 5 5 4 4 5 5
8 9 9 9 9 9 9 9 9 10 11 13 14 15 16 16 16 16 16 16 16 16 16 17 18 18 18 18 18 17 16 15 13 12 11 13 16 18 18 17 15 14 14 13 12 11 9 9 8 8 7 7 7 6 5 5 4 4 4 4 3 3 3 3 3 3 3 3 3 3 3 3 3 2 2 2 2 2 2 2 3 3 3 4 5 5
11 11 11 11 11 11 11 11 11 10 10 10 10 11 12 13 14 14 15 15 15 16 16 18 20 20 20 20 19 18 16 16 14 11 10 11 14 17 17 16 15 13 13 13 11 10 9 8 8 7 7 7 6 6 5 5 5 4 4 4 3 3 3 3 3 3 3 3 3 2 2 2 2 1 1 0 1 1 2 3 3 4 5 5 6 6
13 13 13 13 13 13 13 13 13 13 12 12 11 10 10 11 12 13 14 14 14 15 16 18 21 22 22 21 20 18 16 15 14 12 10 10 12 15 16 15 14 12 12 12 11 10 8 8 7 7 7 6 6 5 5 5 5 5 5 4 4 4 4 3 3 3 3 3 3 3 2 2 1 1 0 1 2 2 3 4 4 5 5 6 6 7
14 14 15 15 15 15 15 15 15 14 14 13 13 12 11 10 11 12 13 13 13 14 15 17 19 21 22 22 20 18 16 15 13 13 12 11 12 13 14 13 12 11 11 11 11 10 8 7 7 7 7 7 6 6 6 6 6 6 6 5 5 5 4 4 4 3 3 3 2 2 1 1 0 1 1 2 3 4 4 5 5 6 6 7 7 7
14 15 15 15 15 14 14 15 14 14 14 13 13 13 12 12 11 11 12 12 12 13 14 16 17 19 20 21 20 19 16 15 14 14 13 12 12 13 13 12 11 10 10 10 11 11 9 8 7 7 7 7 7 7 6 6 6 6 6 6 6 5 5 4 3 3 2 2 1 1 0 1 1 2 3 4 4 5 5 6 6 7 7 7 8 8
14 14 14 14 14 14 14 13 13 13 13 12 12 12 13 13 12 12 12 12 11 12 13 14 16 17 18 20 20 20 17 16 15 14 14 12 12 12 12 11 11 10 9 10 10 11 11 10 9 8 8 8 8 7 7 7 7 6 6 6 5 5 4 3 2 2 1 0 1 1 2 2 3 3 4 5 5 6 6 6 7 7 7 7 7 8
12 13 13 13 13 13 13 13 13 12 12 12 12 11 11 12 12 12 12 12 12 11 12 14 15 15 15 16 18 18 18 16 15 15 14 12 12 12 11 11 10 10 10 10 9 9 9 11 11 10 9 9 9 8 8 7 7 6 6 5 5 4 3 2 1 1 1 1 2 2 3 3 4 4 5 5 6 6 6 6 6 6 7 7 7 7
11 11 11 11 12 12 12 12 12 12 12 12 11 11 11 11 11 11 11 12 12 12 13 14 14 14 13 13 14 15 15 15 15 14 14 12 12 11 11 11 10 10 10 10 9 8 7 10 11 11 11 10 9 9 8 7 7 6 5 4 4 3 2 1 1 1 1 2 3 3 3 4 4 5 5 5 6 6 6 6 6 6 6 6 6 7
9 9 9 9 10 10 11 11 11 11 11 12 12 11 11 11 11 10 10 11 11 11 12 12 12 12 12 12 13 13 14 14 14 13 13 12 11 11 11 11 10 10 10 10 10 8 7 8 10 11 11 11 10 9 8 7 6 5 5 4 3 2 1 1 1 1 2 3 3 4 4 4 4 5 5 5 6 6 6 6 6 6 6 6 6 6
8 8 8 8 9 9 10 10 10 11 11 11 12 12 11 11 11 10 10 10 10 10 10 9 9 9 9 10 12 13 14 13 13 13 12 11 10 11 11 11 10 10 10 10 10 10 9 9 9 10 11 11 10 9 8 7 6 5 4 3 2 2 2 2 2 2 2 3 3 4 4 4 4 5 5 5 6 6 6 6 6 6 6 6 6 7
9 8 8 8 8 9 9 10 10 10 11 11 12 12 12 11 11 11 10 10 10 10 10 9 9 9 8 8 9 11 12 12 12 12 11 10 10 10 11 11 10 10 10 10 10 10 10 11 10 10 10 9 9 9 8 7 6 5 4 3 2 2 2 2 3 3 3 3 4 4 4 4 4 5 5 5 6 6 6 6 6 6 6 7 7 7
9 9 9 9 9 9 10 10 10 11 11 11 11 12 12 11 11 11 11 10 10 10 10 10 10 10 10 9 9 10 11 12 12 12 11 10 9 9 11 11 11 10 10 10 10 10 10 11 11 10 9 8 8 8 7 6 5 4 3 3 3 3 3 3 4 4 4 4 4 4 5 5 5 5 5 6 6 6 6 6 6 7 7 7 8 8
10 10 10 9 9 9 9 10 10 11 11 11 12 12 12 11 11 11 11 11 10 10 10 10 10 10 10 10 10 10 11 12 12 12 11 10 9 9 10 11 11 11 10 9 9 9 9 9 10 10 9 8 7 7 6 5 5 4 4 4 4 4 4 4 5 5 5 4 4 5 5 5 5 6 6 6 7 7 7 7 7 8 8 8 9 9
10 10 10 9 9 9 9 9 10 10 10 11 11 11 11 11 10 10 10 10 10 10 10 10 10 10 10 10 10 10 11 12 13 12 11 10 9 8 9 9 11 11 11 10 9 8 8 8 8 8 8 8 7 7 6 5 5 5 5 5 5 5 5 5 5 5 5 5 5 5 6 6 6 6 6 7 7 7 7 7 8 8 9 9 9 9
10 10 9 9 9 8 8 8 8 9 9 9 10 10 10 10 10 9 9 9 9 9 9 9 9 9 9 9 9 10 10 11 12 12 11 11 10 9 8 8 9 10 11 10 9 8 8 7 7 7 6 6 6 6 6 5 5 5 5 5 5 5 6 6 6 5 5 5 5 6 6 6 6 6 6 7 7 8 8 8 9 9 9 9 9 9
9 8 8 8 8 8 8 7 7 8 8 8 9 9 9 9 8 8 8 8 8 8 8 8 8 8 9 9 9 9 9 10 11 11 11 11 10 9 8 8 8 8 9 9 9 8 7 7 7 6 6 6 5 5 5 5 5 5 5 5 5 5 5 6 5 5 5 6 6 6 6 6 6 6 6 7 7 8 9 9 10 10 10 11 11 11
8 8 8 8 8 7 7 7 7 7 7 7 8 8 8 8 7 7 7 7 8 8 7 7 7 8 8 9 9 9 8 9 9 10 10 10 10 9 9 8 7 7 7 7 7 7 6 6 5 5 5 5 5 5 6 6 6 5 5 5 5 5 5 5 6 6 6 6 6 6 6 6 6 6 7 7 8 9 10 10 10 11 11 11 11 12
9 9 8 8 7 7 7 7 7 7 7 7 8 8 8 7 7 7 7 7 8 8 8 7 7 7 8 9 9 9 9 9 9 9 9 9 9 8 8 7 7 6 5 5 5 5 5 5 4 4 4 4 4 5 5 5 6 6 5 5 5 5 5 5 5 6 6 5 5 5 5 6 6 6 7 8 8 9 10 10 11 11 11 11 12 12
9 9 9 8 8 8 8 8 9 8 8 8 8 8 8 8 7 7 7 7 8 8 8 8 8 8 8 9 9 10 10 9 9 9 9 9 9 8 7 7 6 5 4 4 4 3 3 4 4 4 4 4 4 4 4 5 5 5 5 4 4 4 4 5 5 5 5 4 4 4 5 6 6 7 7 8 8 9 10 10 10 11 11 12 12 12
8 9 9 9 9 9 10 10 10 10 10 9 9 9 9 9 8 8 8 8 8 8 8 8 8 8 9 9 10 10 10 10 10 10 9 10 10 9 8 7 6 6 5 4 4 3 3 3 3 4 4 3 3 3 3 4 4 4 4 3 4 4 5 5 5 5 4 4 4 5 6 6 7 7 7 8 8 9 10 10 10 11 11 11 12 12
8 9 9 9 10 10 11 11 11 11 11 10 10 10 10 10 10 9 9 9 9 9 9 8 8 9 9 10 10 10 10 11 10 10 10 10 10 10 9 9 8 7 6 6 5 5 4 3 3 3 3 3 3 3 3 3 4 3 3 3 3 3 4 4 5 5 5 5 5 6 6 7 7 7 7 8 9 9 10 10 10 11 11 11 12 12
8 9 10 10 11 11 12 12 12 12 12 11 11 10 10 10 10 10 10 9 9 9 10 9 9 9 9 9 9 10 10 11 11 11 10 10 10 9 9 9 9 8 7 7 6 5 5 4 4 3 3 3 3 3 3 3 3 3 3 3 3 3 4 4 4 5 5 6 6 6 7 7 7 7 8 8 9 9 10 10 11 11 11 11 11 12
9 10 10 11 11 12 13 13 13 13 13 13 12 11 10 10 10 10 10 10 10 10 10 10 11 11 10 10 10 10 10 10 10 10 10 10 9 9 8 8 8 7 7 6 6 6 5 5 4 4 3 2 2 2 3 3 3 3 4 4 4 4 4 5 5 5 6 6 6 7 7 7 7 8 8 8 9 9 10 10 11 11 12 12 12 12
10 10 11 11 12 12 13 13 13 13 13 13 13 13 12 11 10 10 10 10 10 10 10 10 11 11 11 11 11 10 10 10 9 9 9 9 9 8 8 7 7 7 7 6 6 6 6 5 5 5 4 4 3 3 3 4 4 4 4 5 5 5 5 6 6 6 6 6 7 7 7 8 8 8 8 8 9 9 10 10 11 12 12 12 12 12
11 11 11 11 12 12 13 13 13 13 13 14 14 14 13 12 11 11 10 10 9 9 9 10 10 11 11 11 11 11 10 10 10 9 9 9 8 8 8 7 7 7 7 7 7 7 7 7 6 6 5 5 5 5 4 5 5 5 5 5 6 6 6 6 7 7 7 7 7 7 8 8 8 8 9 9 9 9 10 11 11 12 12 12 12 12
12 12 12 12 12 12 12 12 13 13 13 13 13 13 13 13 12 11 10 10 9 9 9 9 9 10 10 10 10 10 10 10 9 9 9 8 8 8 8 8 7 7 8 8 8 8 8 8 8 7 7 6 6 6 6 5 6 6 6 6 6 6 6 7 7 7 7 7 7 8 8 8 9 9 9 9 9 9 10 10 10 11 11 11 11 11
Wind_Direction
210 213 217 220 221 223 224 226 226 226 226 227 228 228 229 230 231 231 232 232 232 232 232 234 235 235 235 236 236 237 238 237 235 233 231 230 230 229 228 228 229 229 230 231 232 233 233 234 234 235 235 236 237 237 238 240 241 242 243 245 246 246 247 247 247 247 247 247 247 248 250 251 253 255 256 256 254 251 249 248 248 246 244 243 243 244
212 211 213 215 217 219 221 222 223 224 225 226 227 227 228 229 230 231 232 232 232 232 232 234 236 237 237 237 238 238 239 237 235 232 230 230 229 229 229 229 229 229 230 230 231 232 233 234 235 235 236 237 237 238 239 240 241 242 243 244 245 246 247 247 247 247 247 248 249 250 252 253 255 257 258 259 259 257 256 256 256 255 253 252 252 253
218 211 208 208 210 213 216 218 220 222 224 225 227 227 228 229 230 231 231 232 233 233 234 235 237 238 238 239 239 240 240 238 236 233 231 230 229 230 230 230 230 230 230 231 231 232 233 234 235 236 236 237 238 238 239 240 241 242 243 244 245 246 247 247 248 248 249 250 251 252 254 255 257 258 259 259 259 259 259 259 260 260 259 257 257 258
225 216 210 207 207 208 211 213 216 219 222 224 226 227 228 229 230 231 232 233 234 235 236 237 238 239 239 240 240 241 241 240 238 236 234 232 231 231 231 232 232 232 232 232 232 233 234 234 235 235 236 237 237 238 239 240 241 242 243 244 245 246 247 248 249 249 250 251 252 253 254 256 257 258 258 258 257 256 256 257 258 258 256 255 254 255
232 225 218 211 207 206 208 210 213 216 219 221 224 226 228 229 230 232 233 234 235 236 237 238 238 239 240 240 241 241 241 240 239 238 237 236 234 234 234 235 235 235 234 234 234 234 234 235 235 235 236 236 237 237 238 240 241 242 243 245 245 246 247 248 249 250 251 252 252 253 254 255 257 258 259 258 256 254 253 253 254 254 252 251 250 251
244 234 227 219 211 207 206 207 210 213 216 219 221 223 225 228 229 231 232 233 234 235 236 237 238 238 239 239 239 239 239 239 239 238 237 236 236 236 236 237 237 237 236 235 235 235 235 235 235 236 236 236 236 237 238 239 240 242 243 244 245 246 247 248 249 250 251 252 252 253 254 255 256 257 258 258 258 256 255 254 254 253 252 251 251 251
262 248 237 227 220 215 211 209 209 211 213 216 218 220 222 225 227 228 229 231 231 232 233 234 235 235 235 235 235 236 236 237 236 235 235 235 235 236 236 237 237 237 236 236 235 235 235 235 235 236 236 236 236 237 238 239 240 241 243 244 245 246 247 248 249 249 250 251 252 253 254 254 255 256 257 258 258 258 257 257 256 256 255 254 253 254
266 258 245 232 225 221 218 215 212 211 211 214 216 218 220 222 224 225 227 228 229 229 229 230 231 231 231 231 231 232 233 233 233 233 232 233 235 236 236 236 236 236 235 235 234 234 235 235 235 236 236 236 236 237 237 238 239 241 242 243 244 245 246 247 248 248 249 250 251 252 252 253 254 255 256 257 257 258 258 258 258 257 257 256 256 256
263 259 250 238 228 222 219 217 214 212 211 212 214 216 217 219 220 222 224 225 225 225 225 225 225 226 227 227 227 228 229 230 230 230 230 232 234 235 235 235 234 234 234 233 233 233 234 234 235 235 236 236 236 237 238 238 239 241 242 243 244 244 245 246 246 247 248 248 249 250 251 252 253 254 255 256 256 257 257 257 258 257 257 257 257 257
259 258 253 243 233 225 219 216 214 213 211 211 213 214 216 217 218 219 220 220 221 221 221 221 221 221 223 224 225 225 226 227 227 228 229 231 233 234 235 234 234 234 233 233 233 233 233 233 234 235 235 236 237 237 238 238 239 240 241 242 243 243 243 244 244 244 245 246 247 248 250 251 253 254 255 255 256 256 257 257 258 258 257 257 257 257
247 252 248 240 233 227 221 217 215 214 212 211 211 213 215 216 218 218 217 217 218 218 219 219 219 219 220 221 222 224 224 225 226 228 230 232 233 234 234 234 234 234 234 233 233 233 233 233 234 234 235 236 236 237 237 238 239 240 240 241 241 241 241 241 242 242 243 244 246 248 250 252 254 255 256 257 257 258 258 258 258 258 258 258 258 258
210 210 226 227 226 223 221 219 218 217 215 212 211 211 212 214 217 218 218 218 218 218 217 218 219 220 220 219 220 221 223 224 226 228 229 230 231 231 232 232 233 233 233 233 233 233 233 233 234 235 236 236 236 237 237 238 238 238 238 239 239 240 240 241 241 241 242 244 246 249 252 254 256 257 257 258 258 258 259 259 259 258 258 258 258 259
129 106 126 199 218 222 222 221 221 220 217 214 211 210 210 213 215 217 219 219 219 218 218 217 217 217 218 217 217 218 219 221 223 225 225 225 225 226 226 228 229 230 231 232 232 233 233 234 235 236 236 237 237 238 238 238 238 237 238 238 239 240 241 242 243 243 244 245 247 250 253 255 256 257 257 257 257 257 257 257 257 257 257 257 257 256
138 116 112 127 172 217 229 228 226 224 222 218 215 214 213 214 215 216 216 216 216 217 217 215 212 210 210 211 212 213 214 216 218 219 219 219 219 221 222 224 227 228 230 230 231 232 232 233 234 235 235 236 237 237 237 236 236 236 236 237 238 239 240 241 242 243 244 245 247 249 251 252 253 253 253 253 253 253 253 254 254 255 255 255 253 250
165 150 121 92 76 65 296 240 233 229 227 225 222 219 218 217 216 215 213 211 211 212 212 211 208 205 203 203 206 209 211 213 215 215 214 214 215 217 218 221 224 226 226 226 226 225 226 225 226 228 229 229 230 230 230 230 230 230 231 231 232 233 234 235 236 238 239 241 243 244 246 247 247 247 247 247 248 249 250 253 255 257 259 259 253 244
181 177 144 98 76 64 53 358 241 233 230 229 228 226 224 222 221 219 216 214 213 211 210 208 204 200 199 202 205 207 208 211 214 214 210 204 203 203 205 208 210 211 211 211 209 207 206 206 208 209 210 212 215 217 218 220 221 222 223 223 224 224 225 226 228 230 231 233 235 237 238 239 240 241 242 244 246 249 253 259 262 261 260 256 247 236
186 186 174 137 99 80 66 51 349 238 230 229 228 227 226 225 224 223 221 220 217 215 213 211 206 198 194 196 200 202 202 202 202 201 194 185 180 180 182 187 190 191 191 192 190 185 183 183 185 186 188 191 195 199 203 207 210 213 215 216 217 218 219 220 221 223 224 225 227 228 230 232 234 237 240 243 247 251 255 256 253 248 241 235 228 220
185 187 182 160 131 109 91 76 60 40 228 224 222 222 221 220 220 220 219 218 215 213 211 210 208 202 193 184 183 187 187 187 187 185 179 171 166 165 169 174 178 179 180 179 176 173 170 170 170 171 173 176 180 185 190 195 198 201 204 205 207 209 211 213 215 216 217 219 221 223 226 228 232 236 240 243 245 244 241 235 228 222 216 212 208 203
180 182 178 165 151 138 123 107 91 77 76 212 213 210 207 206 207 208 209 210 210 209 206 202 200 197 190 180 176 175 174 177 180 179 174 165 160 160 164 169 173 175 174 173 171 169 168 167 167 169 170 173 177 180 184 187 189 190 190 190 191 192 194 197 199 203 205 209 213 216 220 223 227 231 232 232 230 226 220 213 207 202 199 196 194 192
177 174 173 169 164 157 147 137 127 112 91 93 196 197 192 186 186 188 191 195 198 200 200 196 191 186 180 173 169 168 169 173 178 179 174 164 158 158 163 168 172 172 171 169 169 170 171 171 172 173 175 175 176 176 177 178 179 178 177 175 174 173 173 174 177 180 184 189 193 198 203 207 210 212 212 212 210 208 204 199 195 192 190 190 190 191
182 176 174 174 177 175 166 158 153 149 143 137 155 191 191 181 176 177 177 181 186 191 193 193 188 181 176 169 166 166 168 172 179 182 176 166 160 159 164 169 171 170 168 166 167 169 171 171 171 171 171 170 169 168 167 166 164 163 161 159 157 158 160 161 165 168 173 178 183 187 191 194 196 197 198 199 200 199 197 195 193 192 193 195 200 209
190 182 178 180 185 186 181 174 170 168 167 168 175 189 202 198 189 183 182 184 188 192 194 191 185 179 175 171 167 167 168 173 181 186 179 167 161 161 165 169 170 169 167 165 164 165 167 168 166 165 164 163 162 161 159 158 156 156 155 155 157 161 165 168 172 176 180 185 189 192 194 196 197 197 198 199 201 202 202 202 202 204 208 215 223 231
194 189 185 186 189 191 190 187 184 181 178 178 182 191 201 204 202 198 196 197 198 198 194 187 180 177 176 173 170 168 169 173 179 183 181 169 162 163 167 170 171 170 167 162 161 162 163 162 160 159 159 159 159 159 159 159 159 159 161 164 168 173 176 180 183 187 192 196 200 204 206 208 209 209 210 210 211 212 213 215 217 220 224 229 235 241
185 184 184 186 189 190 190 190 191 190 188 186 187 190 195 200 204 205 206 205 204 200 194 187 181 178 177 174 171 169 169 172 177 182 183 173 164 163 168 171 171 170 166 161 159 160 160 158 156 156 157 158 159 161 162 163 164 165 168 171 176 180 184 188 192 196 200 204 208 212 215 216 218 219 219 220 221 222 223 224 226 229 233 237 241 247
151 155 159 164 169 173 176 180 186 190 193 193 192 193 195 197 199 202 204 204 201 197 193 189 183 179 178 177 174 171 170 171 175 181 186 177 168 164 166 167 170 169 163 160 158 158 158 157 156 156 157 158 159 162 163 165 166 167 169 171 175 178 184 189 195 198 201 203 206 208 210 213 215 217 218 220 222 223 226 229 234 239 246 254 261 267
140 139 138 139 141 142 144 147 155 167 178 185 190 191 193 193 194 196 196 195 193 191 190 187 182 178 177 175 172 169 167 168 169 176 186 181 170 163 163 164 168 169 162 157 155 155 157 156 155 155 155 156 157 158 160 161 161 162 162 162 164 166 172 180 185 188 189 189 189 188 187 187 188 191 194 201 216 235 251 266 276 284 287 288 288 288
139 137 134 132 131 131 130 130 131 134 142 154 165 175 180 183 185 187 187 186 186 186 186 183 178 174 172 170 167 164 163 162 162 166 178 183 173 164 161 162 165 166 161 155 151 151 151 150 148 148 149 150 152 153 153 152 151 151 150 149 149 151 154 158 162 162 159 155 151 146 142 139 136 129 120 72 327 314 310 307 305 302 300 298 296 294
133 131 129 127 126 126 126 127 127 128 131 137 144 152 159 167 173 174 175 178 180 183 184 181 174 169 167 165 163 161 159 158 157 157 163 175 172 163 160 159 162 163 159 152 149 147 146 143 141 141 142 145 146 148 147 146 145 144 143 143 142 141 141 140 140 139 137 135 132 131 128 125 118 101 19 325 313 306 303 301 300 298 296 294 292 290
125 124 122 121 121 122 123 125 126 129 132 135 140 144 148 156 166 170 168 169 173 177 180 178 173 168 164 162 160 158 156 155 154 153 153 163 164 159 157 156 158 161 159 153 148 147 145 144 140 139 139 143 145 146 145 144 143 143 142 139 138 134 132 131 132 132 133 134 134 131 126 123 67 320 306 301 296 294 293 291 291 290 289 287 284 281
120 119 118 116 116 118 120 122 125 128 131 134 138 141 144 151 160 164 161 161 166 171 174 173 171 167 163 160 158 156 156 155 154 153 153 156 157 155 153 154 157 161 163 157 152 149 149 151 149 145 144 145 147 147 147 144 142 141 140 138 134 130 129 130 131 135 136 139 136 129 341 314 309 302 298 293 290 289 287 286 285 284 283 280 277 275
119 118 116 115 115 116 118 121 123 126 129 131 134 137 141 148 154 156 154 154 158 163 166 166 165 165 164 162 159 157 158 157 155 154 155 155 154 154 155 157 161 167 171 167 159 154 152 157 159 156 152 150 150 150 148 145 142 140 139 138 135 133 133 133 137 142 152 202 292 301 304 302 299 294 290 288 286 284 283 282 281 280 278 275 272 271
122 120 118 117 116 117 118 120 122 124 126 128 130 133 136 142 146 147 145 145 148 152 156 156 158 160 164 166 163 159 157 156 155 155 157 158 158 158 160 164 168 172 176 175 172 167 160 162 162 160 157 154 152 151 149 146 144 142 143 142 142 142 142 146 155 183 258 287 294 295 294 291 289 286 285 283 282 281 279 278 277 275 272 269 267 265
127 125 122 121 120 120 120 121 122 123 124 125 127 128 130 133 136 138 138 140 142 147 151 153 154 156 160 163 162 158 154 154 154 156 160 162 162 162 163 168 173 176 175 174 177 178 173 165 163 160 158 156 154 152 151 149 148 148 149 148 147 151 157 168 199 244 275 284 288 288 286 285 283 281 279 279 278 276 274 273 271 268 265 261 258 255
137 135 132 130 128 127 126 126 126 127 127 126 126 127 128 129 132 134 136 138 140 144 149 152 154 154 154 156 156 155 154 155 155 157 162 165 164 162 162 166 172 175 173 170 169 168 163 160 159 159 158 157 156 154 152 151 153 154 154 153 154 161 182 214 242 263 272 278 281 282 281 279 277 275 273 272 271 270 269 266 264 260 257 252 247 243
148 148 145 143 140 138 136 134 134 134 134 132 131 131 131 131 132 133 134 134 134 135 138 142 146 149 151 154 155 155 155 155 155 156 161 164 162 159 157 160 165 170 169 167 165 162 155 152 154 157 158 159 159 158 156 155 155 155 156 159 166 185 216 244 257 265 268 272 274 274 274 273 270 267 265 263 262 262 261 259 256 253 249 245 240 235
153 154 155 155 153 150 146 144 143 143 143 141 139 137 136 135 135 134 134 132 130 128 127 129 131 135 140 148 153 153 152 151 151 154 158 161 158 155 153 153 157 161 164 164 165 163 157 152 151 153 158 161 162 163 163 161 159 158 160 172 188 207 226 244 255 259 260 262 264 265 265 263 260 257 255 254 253 253 253 251 249 246 243 239 235 233
151 153 155 157 158 156 153 152 152 151 150 149 147 145 142 141 139 139 138 135 133 130 128 126 126 127 130 134 141 144 143 144 146 150 154 157 155 152 149 149 151 155 160 162 163 164 163 157 153 154 159 163 164 166 166 167 167 168 174 190 205 218 229 241 248 251 250 250 251 253 254 252 249 247 247 248 247 247 246 245 244 243 241 238 237 236
150 151 152 153 153 154 155 155 156 156 155 153 152 151 149 146 145 144 142 141 138 136 134 131 130 129 130 132 135 137 138 140 143 147 151 155 153 150 149 149 150 153 158 161 165 167 168 164 160 159 162 166 168 169 170 172 174 179 190 206 217 223 230 239 243 244 242 240 240 243 244 244 243 241 242 243 245 245 243 243 243 243 243 242 242 242
148 147 147 147 148 150 153 156 158 158 157 155 154 153 152 150 148 147 145 143 142 140 139 137 136 136 137 138 139 139 140 141 144 148 151 154 153 152 152 152 152 154 159 164 168 170 171 172 170 169 168 169 172 175 178 180 181 186 196 209 217 224 230 235 240 240 238 237 235 236 237 240 241 240 239 241 244 244 242 242 243 243 244 246 247 248
144 142 142 142 144 148 152 155 158 159 157 155 154 154 153 153 151 149 147 144 142 141 140 140 141 142 144 146 146 146 146 146 147 150 153 155 154 154 154 155 155 158 161 167 172 175 177 178 178 179 180 179 179 180 183 185 189 194 201 203 206 212 224 232 236 239 241 240 237 236 237 241 243 243 242 242 242 241 242 241 242 242 243 244 244 245
143 144 144 143 144 148 154 159 161 160 158 158 156 156 156 157 157 154 151 148 145 143 142 144 147 149 150 151 151 152 151 151 152 154 157 157 157 157 159 160 161 163 167 171 176 181 184 185 184 183 185 187 188 190 190 191 196 201 202 202 206 216 226 232 236 238 242 244 244 244 245 246 247 247 246 243 242 241 243 243 242 242 243 244 244 244
149 150 147 147 149 153 159 162 163 162 163 163 161 158 157 159 160 159 157 154 151 148 149 150 154 155 154 152 153 155 155 154 155 157 159 160 161 162 164 168 172 175 176 179 182 186 189 189 189 188 188 189 190 191 192 198 205 208 206 205 211 221 229 235 239 241 241 244 247 251 253 253 251 248 246 243 242 242 243 243 243 244 244 245 246 248
150 148 148 150 153 158 163 166 166 166 167 167 164 161 159 158 159 161 162 159 156 153 152 153 156 159 160 157 155 155 156 157 157 158 159 161 163 165 168 172 177 183 186 188 189 190 191 191 189 187 187 188 187 189 195 202 209 213 209 207 210 215 219 229 240 245 244 244 247 252 255 254 251 248 245 244 244 244 244 245 245 246 246 248 250 252
148 148 149 151 155 161 166 167 167 166 166 165 163 160 158 158 158 161 163 162 159 157 155 155 159 163 166 162 159 158 158 159 160 160 161 162 163 165 168 173 179 184 187 190 191 193 195 192 188 187 185 184 182 187 197 209 215 216 212 208 205 203 206 220 235 244 247 245 242 242 245 248 248 247 247 247 247 248 249 249 249 249 249 251 253 256
150 152 153 154 158 163 165 165 164 162 161 162 160 157 156 157 159 161 162 162 160 157 156 156 161 165 166 165 164 162 161 161 163 164 165 166 165 165 167 170 173 176 178 179 184 192 199 197 192 189 188 186 185 189 200 216 224 225 221 214 207 204 210 221 233 240 240 235 229 228 236 241 244 245 246 247 249 251 253 254 255 256 256 257 259 262
154 155 156 158 162 165 166 165 162 160 159 160 158 157 156 157 160 162 163 163 161 158 157 158 162 165 165 165 165 165 163 163 165 167 168 168 168 168 169 171 172 173 173 173 178 184 191 197 201 201 199 196 194 198 209 222 231 234 233 229 220 214 216 222 228 234 233 228 224 226 233 238 241 243 245 248 250 254 258 261 263 264 266 267 268 270
156 157 158 160 163 165 165 164 162 160 159 159 157 156 156 158 160 161 162 164 162 161 159 160 162 164 164 163 164 165 165 166 167 168 170 170 170 171 172 173 175 175 175 175 177 181 187 193 200 210 217 213 206 203 209 220 226 230 233 237 233 225 219 222 227 232 233 232 230 232 238 241 244 247 249 251 255 260 266 269 272 273 274 276 277 279
157 158 159 161 163 164 164 163 162 161 160 158 156 154 155 158 160 161 161 162 162 162 160 160 161 163 163 163 163 164 167 169 169 170 171 172 173 174 174 175 176 177 177 179 180 182 185 190 194 199 207 215 215 209 204 207 209 211 219 229 231 227 222 228 233 237 240 242 244 246 248 251 256 259 260 262 266 270 275 279 281 281 282 283 285 287
159 159 160 162 164 164 163 163 162 161 160 158 156 155 155 158 161 162 161 161 161 161 161 161 162 163 164 164 164 165 169 171 173 174 175 175 176 177 178 178 179 179 180 182 184 186 188 188 189 190 190 190 197 203 201 200 200 204 211 218 223 224 227 233 238 242 247 252 256 260 262 265 267 269 272 275 278 281 283 285 286 287 287 289 290 292
162 162 163 163 164 164 163 162 162 162 162 160 159 158 157 159 162 163 163 163 162 161 161 162 164 167 167 166 166 168 170 174 175 177 177 177 178 178 179 180 181 182 183 184 186 186 186 184 184 187 190 189 189 193 198 202 207 211 214 219 224 230 235 239 244 248 254 260 265 269 272 274 276 278 280 282 284 285 286 288 288 289 290 292 293 293
164 165 165 165 165 163 162 162 162 163 163 163 163 162 161 161 162 163 164 164 165 164 163 164 167 171 172 170 169 169 172 175 178 177 177 177 177 178 179 181 183 184 184 184 184 183 182 179 177 180 188 193 193 193 197 207 214 219 222 228 234 240 246 252 257 262 267 271 274 275 277 279 281 283 285 286 286 286 287 287 289 290 290 292 293 293